Year,Month,Day,Hour,Minute,Value (Times are PST for temperature in C)
2018,09,19,00,00,10.70
2018,09,19,00,01,10.70
2018,09,19,00,02,10.70
2018,09,19,00,03,10.60
2018,09,19,00,04,10.60
2018,09,19,00,05,10.60
2018,09,19,00,06,10.60
2018,09,19,00,07,10.60
2018,09,19,00,08,10.50
2018,09,19,00,09,10.50
2018,09,19,00,10,10.50
2018,09,19,00,11,10.50
2018,09,19,00,12,10.40
2018,09,19,00,13,10.40
2018,09,19,00,14,10.40
2018,09,19,00,15,10.40
2018,09,19,00,16,10.40
2018,09,19,00,17,10.40
2018,09,19,00,18,10.40
2018,09,19,00,19,10.40
2018,09,19,00,20,10.30
2018,09,19,00,21,10.30
2018,09,19,00,22,10.30
2018,09,19,00,23,10.30
2018,09,19,00,24,10.30
2018,09,19,00,25,10.30
2018,09,19,00,26,10.30
2018,09,19,00,27,10.20
2018,09,19,00,28,10.20
2018,09,19,00,29,10.20
2018,09,19,00,30,10.20
2018,09,19,00,31,10.20
2018,09,19,00,32,10.20
2018,09,19,00,33,10.20
2018,09,19,00,34,10.20
2018,09,19,00,35,10.10
2018,09,19,00,36,10.10
2018,09,19,00,37,10.10
2018,09,19,00,38,10.10
2018,09,19,00,39,10.10
2018,09,19,00,40,10.10
2018,09,19,00,41,10.10
2018,09,19,00,42,10.10
2018,09,19,00,43,10.10
2018,09,19,00,44,10.10
2018,09,19,00,45,10.10
2018,09,19,00,46,10.10
2018,09,19,00,47,10.10
2018,09,19,00,48,10.10
2018,09,19,00,49,10.00
2018,09,19,00,50,10.00
2018,09,19,00,51,10.00
2018,09,19,00,52,10.00
2018,09,19,00,53,10.00
2018,09,19,00,54,10.00
2018,09,19,00,55,10.00
2018,09,19,00,56,9.90
2018,09,19,00,57,9.90
2018,09,19,00,58,9.90
2018,09,19,00,59,9.90
2018,09,19,01,00,9.90
2018,09,19,01,01,9.80
2018,09,19,01,02,9.80
2018,09,19,01,03,9.80
2018,09,19,01,04,9.80
2018,09,19,01,05,9.80
2018,09,19,01,06,9.80
2018,09,19,01,07,9.80
2018,09,19,01,08,9.80
2018,09,19,01,09,9.80
2018,09,19,01,10,9.80
2018,09,19,01,11,9.80
2018,09,19,01,12,9.80
2018,09,19,01,13,9.80
2018,09,19,01,14,9.80
2018,09,19,01,15,9.80
2018,09,19,01,16,9.80
2018,09,19,01,17,9.80
2018,09,19,01,18,9.80
2018,09,19,01,19,9.80
2018,09,19,01,20,9.80
2018,09,19,01,21,9.80
2018,09,19,01,22,9.80
2018,09,19,01,23,9.80
2018,09,19,01,24,9.70
2018,09,19,01,25,9.70
2018,09,19,01,26,9.70
2018,09,19,01,27,9.70
2018,09,19,01,28,9.70
2018,09,19,01,29,9.70
2018,09,19,01,30,9.70
2018,09,19,01,31,9.70
2018,09,19,01,32,9.70
2018,09,19,01,33,9.70
2018,09,19,01,34,9.60
2018,09,19,01,35,9.60
2018,09,19,01,36,9.60
2018,09,19,01,37,9.60
2018,09,19,01,38,9.60
2018,09,19,01,39,9.60
2018,09,19,01,40,9.60
2018,09,19,01,41,9.50
2018,09,19,01,42,9.50
2018,09,19,01,43,9.50
2018,09,19,01,44,9.40
2018,09,19,01,45,9.40
2018,09,19,01,46,9.40
2018,09,19,01,47,9.40
2018,09,19,01,48,9.40
2018,09,19,01,49,9.40
2018,09,19,01,50,9.30
2018,09,19,01,51,9.30
2018,09,19,01,52,9.30
2018,09,19,01,53,9.30
2018,09,19,01,54,9.30
2018,09,19,01,55,9.30
2018,09,19,01,56,9.20
2018,09,19,01,57,9.20
2018,09,19,01,58,9.20
2018,09,19,01,59,9.20
2018,09,19,02,00,9.20
2018,09,19,02,01,9.20
2018,09,19,02,02,9.20
2018,09,19,02,03,9.20
2018,09,19,02,04,9.20
2018,09,19,02,05,9.20
2018,09,19,02,06,9.20
2018,09,19,02,07,9.20
2018,09,19,02,08,9.20
2018,09,19,02,09,9.20
2018,09,19,02,10,9.20
2018,09,19,02,11,9.10
2018,09,19,02,12,9.10
2018,09,19,02,13,9.10
2018,09,19,02,14,9.10
2018,09,19,02,15,9.20
2018,09,19,02,16,9.10
2018,09,19,02,17,9.10
2018,09,19,02,18,9.10
2018,09,19,02,19,9.10
2018,09,19,02,20,9.10
2018,09,19,02,21,9.10
2018,09,19,02,22,9.10
2018,09,19,02,23,9.10
2018,09,19,02,24,9.10
2018,09,19,02,25,9.10
2018,09,19,02,26,9.10
2018,09,19,02,27,9.10
2018,09,19,02,28,9.10
2018,09,19,02,29,9.10
2018,09,19,02,30,9.10
2018,09,19,02,31,9.10
2018,09,19,02,32,9.10
2018,09,19,02,33,9.10
2018,09,19,02,34,9.10
2018,09,19,02,35,9.10
2018,09,19,02,36,9.10
2018,09,19,02,37,9.10
2018,09,19,02,38,9.10
2018,09,19,02,39,9.10
2018,09,19,02,40,9.10
2018,09,19,02,41,9.10
2018,09,19,02,42,9.10
2018,09,19,02,43,9.10
2018,09,19,02,44,9.10
2018,09,19,02,45,9.10
2018,09,19,02,46,9.10
2018,09,19,02,47,9.10
2018,09,19,02,48,9.10
2018,09,19,02,49,9.10
2018,09,19,02,50,9.10
2018,09,19,02,51,9.10
2018,09,19,02,52,9.10
2018,09,19,02,53,9.10
2018,09,19,02,54,9.10
2018,09,19,02,55,9.00
2018,09,19,02,56,9.00
2018,09,19,02,57,9.00
2018,09,19,02,58,9.00
2018,09,19,02,59,9.00
2018,09,19,03,00,9.00
2018,09,19,03,01,9.00
2018,09,19,03,02,8.90
2018,09,19,03,03,8.90
2018,09,19,03,04,8.90
2018,09,19,03,05,8.90
2018,09,19,03,06,8.90
2018,09,19,03,07,8.90
2018,09,19,03,08,8.90
2018,09,19,03,09,8.90
2018,09,19,03,10,8.90
2018,09,19,03,11,8.90
2018,09,19,03,12,8.90
2018,09,19,03,13,8.80
2018,09,19,03,14,8.80
2018,09,19,03,15,8.80
2018,09,19,03,16,8.80
2018,09,19,03,17,8.80
2018,09,19,03,18,8.80
2018,09,19,03,19,8.80
2018,09,19,03,20,8.80
2018,09,19,03,21,8.80
2018,09,19,03,22,8.80
2018,09,19,03,23,8.80
2018,09,19,03,24,8.80
2018,09,19,03,25,8.80
2018,09,19,03,26,8.80
2018,09,19,03,27,8.70
2018,09,19,03,28,8.70
2018,09,19,03,29,8.70
2018,09,19,03,30,8.70
2018,09,19,03,31,8.70
2018,09,19,03,32,8.70
2018,09,19,03,33,8.70
2018,09,19,03,34,8.70
2018,09,19,03,35,8.70
2018,09,19,03,36,8.70
2018,09,19,03,37,8.70
2018,09,19,03,38,8.70
2018,09,19,03,39,8.70
2018,09,19,03,40,8.70
2018,09,19,03,41,8.70
2018,09,19,03,42,8.80
2018,09,19,03,43,8.80
2018,09,19,03,44,8.80
2018,09,19,03,45,8.80
2018,09,19,03,46,8.80
2018,09,19,03,47,8.80
2018,09,19,03,48,8.80
2018,09,19,03,49,8.80
2018,09,19,03,50,8.70
2018,09,19,03,51,8.70
2018,09,19,03,52,8.70
2018,09,19,03,53,8.70
2018,09,19,03,54,8.70
2018,09,19,03,55,8.70
2018,09,19,03,56,8.70
2018,09,19,03,57,8.70
2018,09,19,03,58,8.70
2018,09,19,03,59,8.70
2018,09,19,04,00,8.70
2018,09,19,04,01,8.70
2018,09,19,04,02,8.70
2018,09,19,04,03,8.70
2018,09,19,04,04,8.70
2018,09,19,04,05,8.70
2018,09,19,04,06,8.70
2018,09,19,04,07,8.70
2018,09,19,04,08,8.70
2018,09,19,04,09,8.70
2018,09,19,04,10,8.70
2018,09,19,04,11,8.70
2018,09,19,04,12,8.70
2018,09,19,04,13,8.70
2018,09,19,04,14,8.70
2018,09,19,04,15,8.70
2018,09,19,04,16,8.70
2018,09,19,04,17,8.60
2018,09,19,04,18,8.60
2018,09,19,04,19,8.60
2018,09,19,04,20,8.60
2018,09,19,04,21,8.60
2018,09,19,04,22,8.60
2018,09,19,04,23,8.60
2018,09,19,04,24,8.60
2018,09,19,04,25,8.60
2018,09,19,04,26,8.60
2018,09,19,04,27,8.60
2018,09,19,04,28,8.60
2018,09,19,04,29,8.60
2018,09,19,04,30,8.60
2018,09,19,04,31,8.60
2018,09,19,04,32,8.60
2018,09,19,04,33,8.60
2018,09,19,04,34,8.60
2018,09,19,04,35,8.60
2018,09,19,04,36,8.60
2018,09,19,04,37,8.50
2018,09,19,04,38,8.50
2018,09,19,04,39,8.50
2018,09,19,04,40,8.50
2018,09,19,04,41,8.50
2018,09,19,04,42,8.50
2018,09,19,04,43,8.40
2018,09,19,04,44,8.40
2018,09,19,04,45,8.40
2018,09,19,04,46,8.40
2018,09,19,04,47,8.40
2018,09,19,04,48,8.40
2018,09,19,04,49,8.40
2018,09,19,04,50,8.30
2018,09,19,04,51,8.30
2018,09,19,04,52,8.30
2018,09,19,04,53,8.30
2018,09,19,04,54,8.30
2018,09,19,04,55,8.30
2018,09,19,04,56,8.30
2018,09,19,04,57,8.30
2018,09,19,04,58,8.30
2018,09,19,04,59,8.30
2018,09,19,05,00,8.30
2018,09,19,05,01,8.30
2018,09,19,05,02,8.30
2018,09,19,05,03,8.30
2018,09,19,05,04,8.30
2018,09,19,05,05,8.30
2018,09,19,05,06,8.30
2018,09,19,05,07,8.20
2018,09,19,05,08,8.20
2018,09,19,05,09,8.20
2018,09,19,05,10,8.20
2018,09,19,05,11,8.20
2018,09,19,05,12,8.20
2018,09,19,05,13,8.20
2018,09,19,05,14,8.20
2018,09,19,05,15,8.20
2018,09,19,05,16,8.10
2018,09,19,05,17,8.10
2018,09,19,05,18,8.10
2018,09,19,05,19,8.10
2018,09,19,05,20,8.10
2018,09,19,05,21,8.00
2018,09,19,05,22,8.00
2018,09,19,05,23,8.00
2018,09,19,05,24,8.00
2018,09,19,05,25,8.00
2018,09,19,05,26,8.00
2018,09,19,05,27,7.90
2018,09,19,05,28,8.00
2018,09,19,05,29,7.90
2018,09,19,05,30,7.90
2018,09,19,05,31,7.90
2018,09,19,05,32,7.90
2018,09,19,05,33,7.90
2018,09,19,05,34,7.90
2018,09,19,05,35,7.90
2018,09,19,05,36,7.90
2018,09,19,05,37,7.90
2018,09,19,05,38,7.90
2018,09,19,05,39,7.90
2018,09,19,05,40,7.80
2018,09,19,05,41,7.80
2018,09,19,05,42,7.80
2018,09,19,05,43,7.80
2018,09,19,05,44,7.80
2018,09,19,05,45,7.80
2018,09,19,05,46,7.80
2018,09,19,05,47,7.80
2018,09,19,05,48,7.80
2018,09,19,05,49,7.80
2018,09,19,05,50,7.80
2018,09,19,05,51,7.80
2018,09,19,05,52,7.80
2018,09,19,05,53,7.80
2018,09,19,05,54,7.80
2018,09,19,05,55,7.80
2018,09,19,05,56,7.80
2018,09,19,05,57,7.80
2018,09,19,05,58,7.80
2018,09,19,05,59,7.70
2018,09,19,06,00,7.70
2018,09,19,06,01,7.70
2018,09,19,06,02,7.70
2018,09,19,06,03,7.70
2018,09,19,06,04,7.70
2018,09,19,06,05,7.70
2018,09,19,06,06,7.70
2018,09,19,06,07,7.70
2018,09,19,06,08,7.70
2018,09,19,06,09,7.70
2018,09,19,06,10,7.70
2018,09,19,06,11,7.70
2018,09,19,06,12,7.70
2018,09,19,06,13,7.70
2018,09,19,06,14,7.60
2018,09,19,06,15,7.60
2018,09,19,06,16,7.60
2018,09,19,06,17,7.60
2018,09,19,06,18,7.60
2018,09,19,06,19,7.50
2018,09,19,06,20,7.50
2018,09,19,06,21,7.50
2018,09,19,06,22,7.40
2018,09,19,06,23,7.40
2018,09,19,06,24,7.40
2018,09,19,06,25,7.40
2018,09,19,06,26,7.40
2018,09,19,06,27,7.40
2018,09,19,06,28,7.40
2018,09,19,06,29,7.40
2018,09,19,06,30,7.40
2018,09,19,06,31,7.40
2018,09,19,06,32,7.40
2018,09,19,06,33,7.40
2018,09,19,06,34,7.40
2018,09,19,06,35,7.40
2018,09,19,06,36,7.40
2018,09,19,06,37,7.40
2018,09,19,06,38,7.40
2018,09,19,06,39,7.40
2018,09,19,06,40,7.40
2018,09,19,06,41,7.40
2018,09,19,06,42,7.40
2018,09,19,06,43,7.40
2018,09,19,06,44,7.40
2018,09,19,06,45,7.40
2018,09,19,06,46,7.40
2018,09,19,06,47,7.40
2018,09,19,06,48,7.40
2018,09,19,06,49,7.40
2018,09,19,06,50,7.30
2018,09,19,06,51,7.30
2018,09,19,06,52,7.30
2018,09,19,06,53,7.30
2018,09,19,06,54,7.30
2018,09,19,06,55,7.30
2018,09,19,06,56,7.30
2018,09,19,06,57,7.30
2018,09,19,06,58,7.30
2018,09,19,06,59,7.30
2018,09,19,07,00,7.30
2018,09,19,07,01,7.30
2018,09,19,07,02,7.30
2018,09,19,07,03,7.30
2018,09,19,07,04,7.30
2018,09,19,07,05,7.30
2018,09,19,07,06,7.30
2018,09,19,07,07,7.20
2018,09,19,07,08,7.20
2018,09,19,07,09,7.20
2018,09,19,07,10,7.20
2018,09,19,07,11,7.20
2018,09,19,07,12,7.20
2018,09,19,07,13,7.20
2018,09,19,07,14,7.20
2018,09,19,07,15,7.20
2018,09,19,07,16,7.20
2018,09,19,07,17,7.20
2018,09,19,07,18,7.20
2018,09,19,07,19,7.20
2018,09,19,07,20,7.20
2018,09,19,07,21,7.20
2018,09,19,07,22,7.20
2018,09,19,07,23,7.20
2018,09,19,07,24,7.20
2018,09,19,07,25,7.20
2018,09,19,07,26,7.20
2018,09,19,07,27,7.20
2018,09,19,07,28,7.20
2018,09,19,07,29,7.20
2018,09,19,07,30,7.20
2018,09,19,07,31,7.20
2018,09,19,07,32,7.10
2018,09,19,07,33,7.10
2018,09,19,07,34,7.10
2018,09,19,07,35,7.10
2018,09,19,07,36,7.10
2018,09,19,07,37,7.10
2018,09,19,07,38,7.10
2018,09,19,07,39,7.10
2018,09,19,07,40,7.10
2018,09,19,07,41,7.10
2018,09,19,07,42,7.10
2018,09,19,07,43,7.20
2018,09,19,07,44,7.20
2018,09,19,07,45,7.20
2018,09,19,07,46,7.20
2018,09,19,07,47,7.20
2018,09,19,07,48,7.20
2018,09,19,07,49,7.30
2018,09,19,07,50,7.30
2018,09,19,07,51,7.30
2018,09,19,07,52,7.30
2018,09,19,07,53,7.30
2018,09,19,07,54,7.40
2018,09,19,07,55,7.40
2018,09,19,07,56,7.50
2018,09,19,07,57,7.50
2018,09,19,07,58,7.60
2018,09,19,07,59,7.60
2018,09,19,08,00,7.70
2018,09,19,08,01,7.70
2018,09,19,08,02,7.70
2018,09,19,08,03,7.80
2018,09,19,08,04,7.80
2018,09,19,08,05,7.80
2018,09,19,08,06,7.90
2018,09,19,08,07,7.90
2018,09,19,08,08,8.00
2018,09,19,08,09,8.10
2018,09,19,08,10,8.10
2018,09,19,08,11,8.10
2018,09,19,08,12,8.20
2018,09,19,08,13,8.20
2018,09,19,08,14,8.20
2018,09,19,08,15,8.30
2018,09,19,08,16,8.30
2018,09,19,08,17,8.30
2018,09,19,08,18,8.30
2018,09,19,08,19,8.40
2018,09,19,08,20,8.40
2018,09,19,08,21,8.50
2018,09,19,08,22,8.50
2018,09,19,08,23,8.60
2018,09,19,08,24,8.60
2018,09,19,08,25,8.70
2018,09,19,08,26,8.70
2018,09,19,08,27,8.80
2018,09,19,08,28,8.80
2018,09,19,08,29,8.90
2018,09,19,08,30,8.90
2018,09,19,08,31,9.00
2018,09,19,08,32,9.00
2018,09,19,08,33,9.10
2018,09,19,08,34,9.20
2018,09,19,08,35,9.20
2018,09,19,08,36,9.30
2018,09,19,08,37,9.30
2018,09,19,08,38,9.30
2018,09,19,08,39,9.40
2018,09,19,08,40,9.40
2018,09,19,08,41,9.50
2018,09,19,08,42,9.60
2018,09,19,08,43,9.60
2018,09,19,08,44,9.60
2018,09,19,08,45,9.70
2018,09,19,08,46,9.70
2018,09,19,08,47,9.80
2018,09,19,08,48,9.80
2018,09,19,08,49,9.90
2018,09,19,08,50,9.90
2018,09,19,08,51,10.00
2018,09,19,08,52,10.00
2018,09,19,08,53,10.10
2018,09,19,08,54,10.10
2018,09,19,08,55,10.20
2018,09,19,08,56,10.20
2018,09,19,08,57,10.20
2018,09,19,08,58,10.30
2018,09,19,08,59,10.30
2018,09,19,09,00,10.40
2018,09,19,09,01,10.40
2018,09,19,09,02,10.50
2018,09,19,09,03,10.60
2018,09,19,09,04,10.60
2018,09,19,09,05,10.70
2018,09,19,09,06,10.70
2018,09,19,09,07,10.80
2018,09,19,09,08,10.90
2018,09,19,09,09,10.90
2018,09,19,09,10,11.00
2018,09,19,09,11,11.00
2018,09,19,09,12,11.10
2018,09,19,09,13,11.20
2018,09,19,09,14,11.20
2018,09,19,09,15,11.30
2018,09,19,09,16,11.40
2018,09,19,09,17,11.50
2018,09,19,09,18,11.50
2018,09,19,09,19,11.60
2018,09,19,09,20,11.70
2018,09,19,09,21,11.80
2018,09,19,09,22,11.90
2018,09,19,09,23,11.90
2018,09,19,09,24,12.00
2018,09,19,09,25,12.10
2018,09,19,09,26,12.20
2018,09,19,09,27,12.20
2018,09,19,09,28,12.20
2018,09,19,09,29,12.20
2018,09,19,09,30,12.20
2018,09,19,09,31,12.20
2018,09,19,09,32,12.20
2018,09,19,09,33,12.30
2018,09,19,09,34,12.30
2018,09,19,09,35,12.30
2018,09,19,09,36,12.30
2018,09,19,09,37,12.30
2018,09,19,09,38,12.40
2018,09,19,09,39,12.40
2018,09,19,09,40,12.50
2018,09,19,09,41,12.50
2018,09,19,09,42,12.60
2018,09,19,09,43,12.60
2018,09,19,09,44,12.60
2018,09,19,09,45,12.60
2018,09,19,09,46,12.70
2018,09,19,09,47,12.80
2018,09,19,09,48,12.80
2018,09,19,09,49,12.80
2018,09,19,09,50,12.80
2018,09,19,09,51,12.70
2018,09,19,09,52,12.70
2018,09,19,09,53,12.60
2018,09,19,09,54,12.60
2018,09,19,09,55,12.60
2018,09,19,09,56,12.60
2018,09,19,09,57,12.60
2018,09,19,09,58,12.70
2018,09,19,09,59,12.70
2018,09,19,10,00,12.70
2018,09,19,10,01,12.80
2018,09,19,10,02,12.80
2018,09,19,10,03,12.80
2018,09,19,10,04,12.80
2018,09,19,10,05,12.80
2018,09,19,10,06,12.80
2018,09,19,10,07,12.90
2018,09,19,10,08,12.90
2018,09,19,10,09,13.00
2018,09,19,10,10,13.00
2018,09,19,10,11,13.10
2018,09,19,10,12,13.10
2018,09,19,10,13,13.10
2018,09,19,10,14,13.20
2018,09,19,10,15,13.20
2018,09,19,10,16,13.20
2018,09,19,10,17,13.30
2018,09,19,10,18,13.30
2018,09,19,10,19,13.30
2018,09,19,10,20,13.40
2018,09,19,10,21,13.40
2018,09,19,10,22,13.50
2018,09,19,10,23,13.50
2018,09,19,10,24,13.60
2018,09,19,10,25,13.70
2018,09,19,10,26,13.70
2018,09,19,10,27,13.70
2018,09,19,10,28,13.70
2018,09,19,10,29,13.70
2018,09,19,10,30,13.70
2018,09,19,10,31,13.70
2018,09,19,10,32,13.70
2018,09,19,10,33,13.70
2018,09,19,10,34,13.70
2018,09,19,10,35,13.60
2018,09,19,10,36,13.60
2018,09,19,10,37,13.60
2018,09,19,10,38,13.60
2018,09,19,10,39,13.60
2018,09,19,10,40,13.60
2018,09,19,10,41,13.70
2018,09,19,10,42,13.70
2018,09,19,10,43,13.70
2018,09,19,10,44,13.70
2018,09,19,10,45,13.70
2018,09,19,10,46,13.70
2018,09,19,10,47,13.70
2018,09,19,10,48,13.70
2018,09,19,10,49,13.70
2018,09,19,10,50,13.80
2018,09,19,10,51,13.80
2018,09,19,10,52,13.80
2018,09,19,10,53,13.80
2018,09,19,10,54,13.80
2018,09,19,10,55,13.80
2018,09,19,10,56,13.80
2018,09,19,10,57,13.80
2018,09,19,10,58,13.80
2018,09,19,10,59,13.80
2018,09,19,11,00,13.80
2018,09,19,11,01,13.90
2018,09,19,11,02,13.90
2018,09,19,11,03,13.90
2018,09,19,11,04,13.80
2018,09,19,11,05,13.80
2018,09,19,11,06,13.90
2018,09,19,11,07,13.90
2018,09,19,11,08,13.90
2018,09,19,11,09,14.00
2018,09,19,11,10,14.00
2018,09,19,11,11,14.10
2018,09,19,11,12,14.10
2018,09,19,11,13,14.20
2018,09,19,11,14,14.30
2018,09,19,11,15,14.40
2018,09,19,11,16,14.40
2018,09,19,11,17,14.40
2018,09,19,11,18,14.40
2018,09,19,11,19,14.40
2018,09,19,11,20,14.40
2018,09,19,11,21,14.40
2018,09,19,11,22,14.40
2018,09,19,11,23,14.40
2018,09,19,11,24,14.40
2018,09,19,11,25,14.40
2018,09,19,11,26,14.40
2018,09,19,11,27,14.50
2018,09,19,11,28,14.50
2018,09,19,11,29,14.50
2018,09,19,11,30,14.50
2018,09,19,11,31,14.50
2018,09,19,11,32,14.50
2018,09,19,11,33,14.50
2018,09,19,11,34,14.60
2018,09,19,11,35,14.60
2018,09,19,11,36,14.60
2018,09,19,11,37,14.60
2018,09,19,11,38,14.60
2018,09,19,11,39,14.70
2018,09,19,11,40,14.80
2018,09,19,11,41,14.80
2018,09,19,11,42,14.80
2018,09,19,11,43,14.90
2018,09,19,11,44,14.90
2018,09,19,11,45,15.00
2018,09,19,11,46,15.00
2018,09,19,11,47,15.00
2018,09,19,11,48,15.00
2018,09,19,11,49,15.00
2018,09,19,11,50,15.00
2018,09,19,11,51,15.00
2018,09,19,11,52,15.00
2018,09,19,11,53,15.00
2018,09,19,11,54,15.00
2018,09,19,11,55,15.00
2018,09,19,11,56,15.00
2018,09,19,11,57,15.00
2018,09,19,11,58,15.00
2018,09,19,11,59,15.00
2018,09,19,12,00,15.00
2018,09,19,12,01,14.90
2018,09,19,12,02,14.80
2018,09,19,12,03,14.80
2018,09,19,12,04,14.80
2018,09,19,12,05,14.80
2018,09,19,12,06,14.80
2018,09,19,12,07,14.70
2018,09,19,12,08,14.70
2018,09,19,12,09,14.70
2018,09,19,12,10,14.60
2018,09,19,12,11,14.60
2018,09,19,12,12,14.50
2018,09,19,12,13,14.50
2018,09,19,12,14,14.50
2018,09,19,12,15,14.40
2018,09,19,12,16,14.30
2018,09,19,12,17,14.30
2018,09,19,12,18,14.30
2018,09,19,12,19,14.30
2018,09,19,12,20,14.30
2018,09,19,12,21,14.20
2018,09,19,12,22,14.20
2018,09,19,12,23,14.30
2018,09,19,12,24,14.30
2018,09,19,12,25,14.40
2018,09,19,12,26,14.30
2018,09,19,12,27,14.30
2018,09,19,12,28,14.20
2018,09,19,12,29,14.20
2018,09,19,12,30,14.20
2018,09,19,12,31,14.10
2018,09,19,12,32,14.10
2018,09,19,12,33,14.00
2018,09,19,12,34,13.90
2018,09,19,12,35,13.90
2018,09,19,12,36,13.90
2018,09,19,12,37,13.80
2018,09,19,12,38,13.70
2018,09,19,12,39,13.70
2018,09,19,12,40,13.60
2018,09,19,12,41,13.60
2018,09,19,12,42,13.60
2018,09,19,12,43,13.70
2018,09,19,12,44,13.70
2018,09,19,12,45,13.70
2018,09,19,12,46,13.70
2018,09,19,12,47,13.70
2018,09,19,12,48,13.70
2018,09,19,12,49,13.70
2018,09,19,12,50,13.70
2018,09,19,12,51,13.70
2018,09,19,12,52,13.70
2018,09,19,12,53,13.70
2018,09,19,12,54,13.70
2018,09,19,12,55,13.70
2018,09,19,12,56,13.70
2018,09,19,12,57,13.80
2018,09,19,12,58,13.80
2018,09,19,12,59,13.80
2018,09,19,13,00,13.80
2018,09,19,13,01,13.80
2018,09,19,13,02,13.90
2018,09,19,13,03,13.90
2018,09,19,13,04,13.90
2018,09,19,13,05,14.00
2018,09,19,13,06,14.00
2018,09,19,13,07,14.10
2018,09,19,13,08,14.10
2018,09,19,13,09,14.20
2018,09,19,13,10,14.20
2018,09,19,13,11,14.30
2018,09,19,13,12,14.30
2018,09,19,13,13,14.40
2018,09,19,13,14,14.50
2018,09,19,13,15,14.60
2018,09,19,13,16,14.70
2018,09,19,13,17,14.80
2018,09,19,13,18,14.90
2018,09,19,13,19,14.90
2018,09,19,13,20,15.00
2018,09,19,13,21,15.00
2018,09,19,13,22,15.00
2018,09,19,13,23,15.10
2018,09,19,13,24,15.20
2018,09,19,13,25,15.30
2018,09,19,13,26,15.30
2018,09,19,13,27,15.40
2018,09,19,13,28,15.40
2018,09,19,13,29,15.50
2018,09,19,13,30,15.50
2018,09,19,13,31,15.60
2018,09,19,13,32,15.70
2018,09,19,13,33,15.90
2018,09,19,13,34,16.00
2018,09,19,13,35,16.10
2018,09,19,13,36,16.20
2018,09,19,13,37,16.40
2018,09,19,13,38,16.60
2018,09,19,13,39,16.80
2018,09,19,13,40,17.00
2018,09,19,13,41,17.20
2018,09,19,13,42,17.40
2018,09,19,13,43,17.60
2018,09,19,13,44,17.80
2018,09,19,13,45,17.90
2018,09,19,13,46,18.10
2018,09,19,13,47,18.20
2018,09,19,13,48,18.30
2018,09,19,13,49,18.40
2018,09,19,13,50,18.40
2018,09,19,13,51,18.50
2018,09,19,13,52,18.50
2018,09,19,13,53,18.60
2018,09,19,13,54,18.60
2018,09,19,13,55,18.60
2018,09,19,13,56,18.50
2018,09,19,13,57,18.50
2018,09,19,13,58,18.40
2018,09,19,13,59,18.40
2018,09,19,14,00,18.30
2018,09,19,14,01,18.20
2018,09,19,14,02,18.20
2018,09,19,14,03,18.20
2018,09,19,14,04,18.10
2018,09,19,14,05,18.10
2018,09,19,14,06,18.10
2018,09,19,14,07,18.10
2018,09,19,14,08,18.10
2018,09,19,14,09,18.10
2018,09,19,14,10,18.10
2018,09,19,14,11,18.00
2018,09,19,14,12,18.00
2018,09,19,14,13,18.00
2018,09,19,14,14,18.10
2018,09,19,14,15,18.10
2018,09,19,14,16,18.10
2018,09,19,14,17,18.10
2018,09,19,14,18,18.20
2018,09,19,14,19,18.20
2018,09,19,14,20,18.20
2018,09,19,14,21,18.20
2018,09,19,14,22,18.20
2018,09,19,14,23,18.20
2018,09,19,14,24,18.20
2018,09,19,14,25,18.10
2018,09,19,14,26,18.00
2018,09,19,14,27,18.00
2018,09,19,14,28,17.90
2018,09,19,14,29,17.80
2018,09,19,14,30,17.70
2018,09,19,14,31,17.70
2018,09,19,14,32,17.60
2018,09,19,14,33,17.50
2018,09,19,14,34,17.50
2018,09,19,14,35,17.40
2018,09,19,14,36,17.40
2018,09,19,14,37,17.30
2018,09,19,14,38,17.30
2018,09,19,14,39,17.30
2018,09,19,14,40,17.30
2018,09,19,14,41,17.20
2018,09,19,14,42,17.20
2018,09,19,14,43,17.20
2018,09,19,14,44,17.20
2018,09,19,14,45,17.10
2018,09,19,14,46,17.10
2018,09,19,14,47,17.10
2018,09,19,14,48,17.00
2018,09,19,14,49,17.00
2018,09,19,14,50,16.90
2018,09,19,14,51,16.90
2018,09,19,14,52,16.90
2018,09,19,14,53,16.90
2018,09,19,14,54,16.90
2018,09,19,14,55,16.90
2018,09,19,14,56,16.90
2018,09,19,14,57,16.90
2018,09,19,14,58,16.90
2018,09,19,14,59,16.90
2018,09,19,15,00,16.90
2018,09,19,15,01,16.90
2018,09,19,15,02,16.90
2018,09,19,15,03,16.90
2018,09,19,15,04,16.90
2018,09,19,15,05,16.90
2018,09,19,15,06,16.90
2018,09,19,15,07,16.80
2018,09,19,15,08,16.80
2018,09,19,15,09,16.80
2018,09,19,15,10,16.80
2018,09,19,15,11,16.80
2018,09,19,15,12,16.80
2018,09,19,15,13,16.80
2018,09,19,15,14,16.80
2018,09,19,15,15,16.80
2018,09,19,15,16,16.70
2018,09,19,15,17,16.70
2018,09,19,15,18,16.70
2018,09,19,15,19,16.70
2018,09,19,15,20,16.80
2018,09,19,15,21,16.80
2018,09,19,15,22,16.80
2018,09,19,15,23,16.90
2018,09,19,15,24,16.90
2018,09,19,15,25,17.00
2018,09,19,15,26,17.00
2018,09,19,15,27,17.10
2018,09,19,15,28,17.20
2018,09,19,15,29,17.30
2018,09,19,15,30,17.40
2018,09,19,15,31,17.50
2018,09,19,15,32,17.50
2018,09,19,15,33,17.60
2018,09,19,15,34,17.70
2018,09,19,15,35,17.80
2018,09,19,15,36,17.80
2018,09,19,15,37,17.90
2018,09,19,15,38,17.90
2018,09,19,15,39,17.90
2018,09,19,15,40,17.90
2018,09,19,15,41,18.00
2018,09,19,15,42,18.00
2018,09,19,15,43,18.00
2018,09,19,15,44,18.00
2018,09,19,15,45,17.90
2018,09,19,15,46,17.90
2018,09,19,15,47,17.90
2018,09,19,15,48,17.90
2018,09,19,15,49,17.90
2018,09,19,15,50,17.90
2018,09,19,15,51,17.90
2018,09,19,15,52,17.90
2018,09,19,15,53,17.90
2018,09,19,15,54,17.90
2018,09,19,15,55,17.90
2018,09,19,15,56,17.90
2018,09,19,15,57,17.90
2018,09,19,15,58,17.90
2018,09,19,15,59,17.80
2018,09,19,16,00,17.80
2018,09,19,16,01,17.70
2018,09,19,16,02,17.70
2018,09,19,16,03,17.60
2018,09,19,16,04,17.50
2018,09,19,16,05,17.50
2018,09,19,16,06,17.50
2018,09,19,16,07,17.40
2018,09,19,16,08,17.30
2018,09,19,16,09,17.30
2018,09,19,16,10,17.20
2018,09,19,16,11,17.20
2018,09,19,16,12,17.10
2018,09,19,16,13,17.10
2018,09,19,16,14,17.00
2018,09,19,16,15,17.00
2018,09,19,16,16,16.90
2018,09,19,16,17,16.90
2018,09,19,16,18,16.90
2018,09,19,16,19,16.90
2018,09,19,16,20,16.90
2018,09,19,16,21,16.90
2018,09,19,16,22,16.90
2018,09,19,16,23,16.90
2018,09,19,16,24,16.90
2018,09,19,16,25,16.90
2018,09,19,16,26,16.80
2018,09,19,16,27,16.80
2018,09,19,16,28,16.80
2018,09,19,16,29,16.80
2018,09,19,16,30,16.80
2018,09,19,16,31,16.80
2018,09,19,16,32,16.80
2018,09,19,16,33,16.70
2018,09,19,16,34,16.70
2018,09,19,16,35,16.70
2018,09,19,16,36,16.70
2018,09,19,16,37,16.70
2018,09,19,16,38,16.70
2018,09,19,16,39,16.70
2018,09,19,16,40,16.70
2018,09,19,16,41,16.70
2018,09,19,16,42,16.70
2018,09,19,16,43,16.70
2018,09,19,16,44,16.70
2018,09,19,16,45,16.70
2018,09,19,16,46,16.70
2018,09,19,16,47,16.70
2018,09,19,16,48,16.70
2018,09,19,16,49,16.80
2018,09,19,16,50,16.80
2018,09,19,16,51,16.80
2018,09,19,16,52,16.80
2018,09,19,16,53,16.80
2018,09,19,16,54,16.80
2018,09,19,16,55,16.80
2018,09,19,16,56,16.80
2018,09,19,16,57,16.80
2018,09,19,16,58,16.80
2018,09,19,16,59,16.80
2018,09,19,17,00,16.80
2018,09,19,17,01,16.80
2018,09,19,17,02,16.80
2018,09,19,17,03,16.80
2018,09,19,17,04,16.80
2018,09,19,17,05,16.80
2018,09,19,17,06,16.90
2018,09,19,17,07,16.90
2018,09,19,17,08,16.90
2018,09,19,17,09,16.90
2018,09,19,17,10,16.90
2018,09,19,17,11,16.90
2018,09,19,17,12,17.00
2018,09,19,17,13,17.00
2018,09,19,17,14,17.00
2018,09,19,17,15,17.10
2018,09,19,17,16,17.10
2018,09,19,17,17,17.20
2018,09,19,17,18,17.20
2018,09,19,17,19,17.20
2018,09,19,17,20,17.20
2018,09,19,17,21,17.20
2018,09,19,17,22,17.20
2018,09,19,17,23,17.20
2018,09,19,17,24,17.20
2018,09,19,17,25,17.10
2018,09,19,17,26,17.10
2018,09,19,17,27,17.10
2018,09,19,17,28,17.10
2018,09,19,17,29,17.20
2018,09,19,17,30,17.20
2018,09,19,17,31,17.20
2018,09,19,17,32,17.20
2018,09,19,17,33,17.20
2018,09,19,17,34,17.30
2018,09,19,17,35,17.30
2018,09,19,17,36,17.30
2018,09,19,17,37,17.40
2018,09,19,17,38,17.40
2018,09,19,17,39,17.40
2018,09,19,17,40,17.40